Tupelo, MS

6:03 PM CDT on August 21, 2017 (GMT -0500)
Tupelo Regional

Weather History for KTUP - April, 2013

Change the Weather History Date:

Monday, April 22, 2013

  Actual Average Record
Temperature  
Mean Temperature 61 °F 64 °F  
Max Temperature 76 °F 76 °F 88 °F (1963)
Min Temperature 45 °F 52 °F 32 °F (1978)
Degree Days  
Heating Degree Days 4 4  
Month to date heating degree days 132 125  
Since 1 July heating degree days 2873 2911  
Cooling Degree Days 0 2  
Month to date cooling degree days 48 35  
Year to date cooling degree days 55 51  
Growing Degree Days 10 (Base 50)    
Moisture  
Dew Point 46 °F    
Average Humidity 61    
Maximum Humidity 86    
Minimum Humidity 36    
Precipitation  
Precipitation 0.00 in 0.16 in 1.82 in (1996)
Month to date precipitation 4.49 3.40  
Year to date precipitation 21.25 17.66  
Snow  
Snow 0.00 in 0.00 in T in (1934)
Month to date snowfall 0.0 0.0  
Since 1 July snowfall T 2.1  
Snow Depth 0.00 in    
Sea Level Pressure  
Sea Level Pressure 30.15 in    
Wind  
Wind Speed 5 mph (SSE)    
Max Wind Speed 16 mph    
Max Gust Speed 22 mph    
Visibility 10 miles    
Events      
T = Trace of Precipitation, MM = Missing Value Source: NWS Daily Summary

Daily Weather History Graph

Daily Weather History Graph

Search for Another Location

Airport or City:

Trip Planner

Search our weather history database for the weather conditions in past years. The results will help you decide how hot, cold, wet, or windy it might be!

Date:

Astronomy

Apr. 22, 2013 Rise Set
Actual Time 6:15 AM CDT 7:32 PM CDT
Civil Twilight 5:48 AM CDT 7:58 PM CDT
Nautical Twilight 5:17 AM CDT 8:30 PM CDT
Astronomical Twilight 4:45 AM CDT 9:02 PM CDT
Moon 4:28 PM CDT (4/22) 4:00 AM CDT (4/22)
Length of Visible Light 14h 09m
Length of Day
13h 17m
Waxing Gibbous, 88% of the Moon is Illuminated
Apr 22
Waxing Gibbous
Apr 25
Full
May 2
Last Quarter
May 9
New
May 17
First Quarter

Hourly Weather History & Observations

Time (CDT) Temp. Dew Point Humidity Pressure Visibility Wind Dir Wind Speed Gust Speed Precip Events Conditions
12:53 AM 51.1 °F 43.0 °F 74% 30.19 in 10.0 mi NE 3.5 mph - N/A   Clear
1:53 AM 50.0 °F 44.1 °F 80% 30.19 in 10.0 mi Calm Calm - N/A   Clear
2:53 AM 48.9 °F 44.1 °F 83% 30.18 in 10.0 mi Calm Calm - N/A   Clear
3:53 AM 48.0 °F 43.0 °F 83% 30.19 in 10.0 mi Calm Calm - N/A   Clear
4:53 AM 46.9 °F 43.0 °F 86% 30.19 in 10.0 mi Calm Calm - N/A   Clear
5:53 AM 46.9 °F 43.0 °F 86% 30.20 in 10.0 mi Calm Calm - N/A   Clear
6:53 AM 48.9 °F 44.1 °F 83% 30.22 in 10.0 mi Variable 4.6 mph - N/A   Clear
7:53 AM 55.9 °F 43.0 °F 62% 30.22 in 10.0 mi SE 9.2 mph - N/A   Clear
8:53 AM 60.1 °F 45.0 °F 57% 30.22 in 10.0 mi South 12.7 mph 18.4 mph N/A   Clear
9:53 AM 64.9 °F 46.9 °F 52% 30.23 in 10.0 mi SE 11.5 mph - N/A   Clear
10:53 AM 69.1 °F 48.0 °F 47% 30.22 in 10.0 mi SE 9.2 mph - N/A   Clear
12:53 PM 72.0 °F 45.0 °F 38% 30.16 in 10.0 mi SE 11.5 mph - N/A   Partly Cloudy
1:53 PM 73.9 °F 46.0 °F 37% 30.14 in 10.0 mi South 8.1 mph 18.4 mph N/A   Scattered Clouds
2:53 PM 72.0 °F 46.9 °F 41% 30.12 in 10.0 mi South 9.2 mph - N/A   Partly Cloudy
3:53 PM 75.0 °F 46.9 °F 37% 30.09 in 10.0 mi SSW 10.4 mph - N/A   Scattered Clouds
4:53 PM 75.0 °F 48.0 °F 38% 30.08 in 10.0 mi SSW 4.6 mph - N/A   Partly Cloudy
5:53 PM 73.0 °F 48.0 °F 41% 30.06 in 10.0 mi South 6.9 mph - N/A   Clear
6:53 PM 71.1 °F 48.0 °F 44% 30.06 in 10.0 mi South 6.9 mph - N/A   Clear
7:53 PM 66.9 °F 48.9 °F 52% 30.06 in 10.0 mi Calm Calm - N/A   Clear
8:53 PM 63.0 °F 50.0 °F 63% 30.06 in 10.0 mi South 3.5 mph - N/A   Clear
9:53 PM 63.0 °F 51.1 °F 65% 30.07 in 10.0 mi Calm Calm - N/A   Clear
10:53 PM 59.0 °F 52.0 °F 78% 30.09 in 10.0 mi Calm Calm - N/A   Clear
11:53 PM 57.9 °F 51.1 °F 78% 30.09 in 10.0 mi Calm Calm - N/A   Clear